Location: Dentlein
(49.1477°N, 10.4231°E)
Time: 04:46:26
(UTC+00:00)

Cosmos 1825 - Pass Details

Date: 18 August 2024
Orbit: 422 x 426 km, 82.5° (Epoch: 09 September)

Event Time Altitude Azimuth Distance (km) Brightness Sun altitude
Rises 02:37:30 0° 338° (NNW) 2,400 5.8 -14.5°
Reaches altitude 10° 02:39:50 10° 323° (NW) 1,525 4.6 -14.2°
Maximum altitude 02:42:28 22° 270° (W) 985 3.2 -13.9°
Enters shadow 02:42:37 22° 266° (W) 987 3.2 -13.8°
